Location: Cointrin
(46.2167°N, 6.1167°E)
Time: 19:30:13
(UTC+00:00)

CSL-04 Debris - Pass Details

Date: 08 February 2023
Orbit: 826 x 846 km, 98.8° (Epoch: 22 March)

Event Time Altitude Azimuth Distance (km) Brightness Sun altitude
Exits shadow 18:59:04 39° 139° (SE) 1,228 4.7 -22.6°
Maximum altitude 19:01:01 66° 72° (ENE) 904 4.0 -23.0°
Drops below altitude 10° 19:06:22 10° 351° (N) 2,441 6.7 -23.9°
Sets 19:08:44 0° 349° (NNW) 3,377 7.5 -24.3°
